Showing default

PERUSAT 1, 41770

Orbit data source: Space-Track

PERUSAT 1, 41770 is a payload satellite owned by MOD Peru (PE) in SSO that was launched on Fri, 16 Sep 2016 UTC via a VEGA launch vehicle from the French Guiana (FRGUI). Payloads include a variety of satellites, spacecraft, and rockets equipped with specific instruments for various scientific and technological missions. These include communications satellites like Starlink; space stations such as the ISS; scientific satellites like the Hubble; Earth observation satellites from companies like Planet Labs, Umbra, and HawkEye 360; GPS; miniature CubeSats for education and research; and military/defense satellites.

Loading next visibility...
PERUSAT 1 details
Identifier
41770, 2016-058A
Orbit
SSO
Last TLE update8 hours ago
Origin
Flag of PEMOD Peru (PE / PER)
ManufacturerAirbus/Toulouse
MissionOperational Defense Imaging
Bus & MotorASTROBUS-S, Unknown motor
Mass430 kg wet, ~400 kg dry
Launch date (UTC)
2016-09-16 (8 years ago)
Launch vehicle
VEGA
Launch site
French Guiana (FRGUI)
Object type
Payload
Rocket body
Debris
Shape & HBRHex Cyl + 3 Pan, 4.5 m
Radar Cross Section3.025 m², Large (>1 m²)

Expand to show TLE details & history

TLE from 8 hours ago
0 PERUSAT 1
1 41770U 16058A   24356.94077415  .00000900  00000-0  20360-3 0  9999
2 41770  98.2091  67.2826 0001267  90.1781 269.9563 14.58512570440054
Epoch: 2024-12-21T22:34Z
Definitive object data (Epoch: 2024-12-21T22:34:42.886Z)
Latitude-0.00007°
Longitude-2.3808°
Altitude700.964 km
Speed7.505 km/s
True Right ascension04h 29m 07s
True Declination0° 00' 00"
Sunlit
Object was in full shadow at TLE epoch
Visualization TLE readout
Latitude-66.8862°
Longitude158.29216°
Altitude724.12 km
Speed7.492 km/s
Apparent Right ascension16h 35m 35s
Apparent Declination-55° 00' 28"
Sunlit
Object is in daylight
Visualization observer readout
Local Sidereal Time05:22:39
Azimuth156.431° SSE
Elevation-72.993°
Doppler factor1
Orbital elements
Apogee altitude695.961 km
Perigee altitude694.168 km
Semi-major axis7,073.201 km
Eccentricity0.0001267
Inclination98.2091°
RAAN67.2826°
Arg. of periapsis90.1781°
True anomaly269.94178°
Mean anomaly269.9563°
Eccentric anomaly269.94904°
Mean motion3.64854 °/min
BSTAR0.0002036
Orbital period98.67 mins
Loading maneuver chart data...
Loading historical data...
Loading historical data...
Loading historical data...
Loading historical data...
Loading historical data...
Loading historical data...
Loading historical data...

PERUSAT 1 Visibility forecast

Observer location: undefined°, undefined

Span
Click to sort rows by Start time (UTC) header in descending order
Start Az.
Max El. time (UTC)
Max El. Az.
Max El.
End time (UTC)
End Az.
8 mins2024-12-22 17:15:55.540Z30.2° NE2024-12-22 17:19:55.540Z96.02° ESE32.714°2024-12-22 17:23:55.540Z165.751° S
4 mins2024-12-22 18:55:55.540Z318.471° NNW2024-12-22 18:56:55.540Z301.948° NW19.305°2024-12-22 18:59:55.540Z255.177° W
6 mins2024-12-23 04:21:55.540Z127.257° SE2024-12-23 04:24:55.540Z55.964° ENE32.332°2024-12-23 04:27:55.540Z7.217° NNE
5 mins2024-12-23 05:59:55.540Z230.899° WSW2024-12-23 06:01:55.540Z260.734° W18.478°2024-12-23 06:04:55.540Z305.847° NW
|